www.pogodaiklimat.ru

Погода и климат >> Архив погоды >> КНДР >> Wonsan


ПОГОДА в Wonsan

  • Прогноз погоды в Wonsan
  • Монитор погоды в Wonsan
  • Климат города

АРХИВ ПОГОДЫ в Wonsan

Время (UTC), дата Ветер
(напр.,м/с)
 
Видим.   Явления Облачность Т
(С)
Тd
(С)
f
(%)
Тe
(С)
Тes
(С)
Комфортность P
(гПа)
Po
(гПа)
Тmin
(С)
Tmax
(С)
R
(мм)
R24
(мм)
S
(см)
12 12.12 штиль 0 20 км ясно -1.5 -15.0 35 -2 -2 1027.6 1022.9 +5.3
15 12.12 штиль 0 20 км ясно -2.5 -15.0 38 -3 -3 1028.1 1023.4
18 12.12 штиль 0 20 км ясно -2.4 -12.7 45 -3 -3 1026.6 1021.9
21 12.12 штиль 0 20 км ясно -1.9 -8.2 62 -3 -3 1025.6 1020.9
00 13.12 З 2 20 км 3/3 600 м
[Sc]
-1.8 -7.1 67 -5 -5 1025.5 1020.8 -2.9
03 13.12 ЮЗ 3 20 км ясно +2.1 -9.4 42 -1 +3 1025.5 1020.8
06 13.12 З 8 20 км ясно +2.1 -15.7 25 -4 -3 1024.1 1019.5
09 13.12 З 8 20 км ясно -1.2 -14.4 36 -8 -8 1026.1 1021.5
12 13.12 З 4 20 км ясно -2.2 -14.4 39 -7 -7 1029.3 1024.6 +3.5
15 13.12 З 4 20 км ясно -3.4 -13.8 44 -9 -9 1031.0 1026.3
18 13.12 ЮЗ 2 20 км ясно -5.4 -12.7 56 -9 -9 1032.2 1027.4
21 13.12 штиль 0 20 км ясно -6.2 -12.2 62 -7 -7 1032.6 1027.8
00 14.12 ЮЗ 1 20 км ясно -5.0 -11.2 62 -7 -6 1034.2 1029.4 -7.7
03 14.12 штиль 0 20 км ясно -0.4 -10.3 47 -1 +6 1034.8 1029.6
06 14.12 штиль 0 20 км ясно +1.0 -10.7 41 +1 +4 1032.6 1027.8
09 14.12 штиль 0 20 км ясно -0.4 -9.8 49 -1 -1 1033.1 1028.3
12 14.12 штиль 0 20 км ясно -2.5 -10.7 53 -3 -3 1034.2 1029.4 +2.6
15 14.12 штиль 0 20 км ясно -3.5 -10.3 59 -4 -4 1034.4 1029.6
18 14.12 штиль 0 20 км ясно -5.4 -11.2 64 -6 -6 1034.4 1029.6
21 14.12 штиль 0 20 км ясно -6.7 -12.7 62 -7 -7 1032.9 1028.1
00 15.12 штиль 0 20 км ясно -5.8 -11.2 66 -6 -5 1032.7 1027.9 -7.6
03 15.12 штиль 0 20 км ясно +4.8 -8.2 38 +5 +11 1030.9 1026.1
06 15.12 З 3 20 км ясно +6.4 -5.4 43 +4 +6 1027.8 1023.2
09 15.12 З 4 20 км 6/0
[Ci fib]
+4.2 -4.1 55 0 0 1026.5 1021.9
12 15.12 штиль 0 20 км 8/0
[Ac trans]
+2.5 -4.1 62 +2 +2 1026.8 1022.2 +7.4
15 15.12 штиль 0 20 км 8/0
[Ac trans]
+1.8 -4.4 63 +1 +1 1025.3 1020.7
18 15.12 штиль 0 20 км 6/0
[Ac trans]
+1.7 -3.8 67 +1 +1 1024.4 1019.8
21 15.12 штиль 0 20 км 6/0
[Ac trans]
+2.2 -3.6 65 +2 +2 1021.9 1017.3
00 16.12 штиль 0 20 км 9/8 600 м
[Sc Ci fib]
+2.2 -3.8 64 +2 +2 1019.4 1014.7 +1.0
03 16.12 Ю 2 20 км 9/9 600 м
[Sc]
+4.6 -5.0 50 +3 +3 1018.8 1014.2
06 16.12 З 4 20 км 9/9 600 м
[Sc]
+6.3 -3.8 48 +3 +3 1017.0 1012.5
09 16.12 штиль 0 20 км 10/10 600 м
[Sc]
+3.7 -3.0 62 +3 +3 1015.6 1011.0
12 16.12 штиль 0 20 км 10/10 600 м
[Sc]
+3.1 -2.2 68 +2 +2 1014.7 1010.1 +6.7
15 16.12 З 3 20 км 9/9 600 м
[Sc]
+4.6 -4.1 53 +2 +2 1014.4 1009.8
18 16.12 ЮЗ 3 20 км 3/3 600 м
[Sc]
+3.2 -6.4 49 0 0 1014.1 1009.5
21 16.12 З 2 20 км ясно +0.8 -7.8 53 -2 -2 1014.9 1010.2
00 17.12 З 2 15 км ясно +1.6 -6.7 54 -1 -0 1016.0 1011.4 +0.6
03 17.12 З 3 15 км ясно +4.5 -8.2 39 +2 +6 1016.0 1011.4
06 17.12 З 4 20 км ясно +5.6 -8.2 36 +3 +4 1014.6 1010.0
09 17.12 З 3 20 км ясно +3.0 -9.8 38 -0 -0 1016.2 1011.6
12 17.12 штиль 0 20 км ясно +1.3 -10.7 40 +1 +1 1017.5 1012.9 +6.2
15 17.12 З 3 20 км ясно +1.2 -10.7 41 -2 -2 1017.8 1013.2
18 17.12 З 1 20 км ясно +0.6 -10.7 42 -0 -0 1018.4 1013.8
21 17.12 З 2 20 км ясно +1.6 -10.7 40 -1 -1 1017.7 1013.1
00 18.12 штиль 0 20 км ясно +0.2 -11.2 42 0 +1 1018.6 1014.0 -0.5
03 18.12 штиль 0 20 км ясно +6.3 -7.8 36 +6 +12 1018.0 1013.4
06 18.12 З 5 20 км 4/4 600 м
[Sc]
+7.3 -6.0 38 +4 +5 1016.6 1012.0
09 18.12 ЮЗ 3 20 км 10/10 600 м
[Sc]
+6.0 -3.0 52 +3 +3 1016.3 1011.7
12 18.12 ЮЗ 1 20 км 4/4 600 м
[Sc]
+5.9 -0.7 63 +5 +5 1016.3 1011.7 +8.5
15 18.12 З 3 20 км 5/5 600 м
[Sc]
+6.3 -1.9 56 +4 +4 1016.3 1011.7
18 18.12 З 3 20 км 3/3 600 м
[Sc]
+6.4 -3.8 48 +4 +4 1016.3 1011.7
21 18.12 З 2 20 км ясно +5.1 -6.0 45 +3 +3 1016.3 1011.7
00 19.12 З 2 20 км ясно +3.8 -9.4 37 +2 +3 1017.9 1013.5 +3.1
03 19.12 З 5 20 км ясно +7.1 -10.7 27 +4 +6 1019.3 1014.7
06 19.12 З 3 20 км ясно +8.3 -15.7 16 +7 +9 1017.7 1013.2
09 19.12 З 2 20 км ясно +6.0 -13.2 24 +5 +5 1018.4 1013.8

 

Местоположение метеостанции Wonsan (КНДР): широта 39.18 долгота 127.43 высота над уровнем моря 36 м.

В архиве по умолчанию представлена погода в Wonsan за последнюю неделю. Архивные данные за месяц целиком и за предыдущие месяцы, начиная с января 2011 года, Вы можете получить, выбрав интересующий диапазон дат из раскрывающегося списка и нажав кнопку "Ввод!".


*Определитесь, кто Вы:
робот инопланетянин человек

Внимание! Время в таблицах - всемирное. Для получения местного времени необходимо прибавить поправку, которая в Wonsan равна 9 ч.

Смотрите также архив погоды в соседних городах и на ближайших метеорологических станциях:

Погода в Yangdok (КНДР) (67 км)
Погода в Changjon (КНДР) (82 км)
Погода в Hamhung (КНДР) (84 км)
Погода в Pyonggang (КНДР) (86 км)
Погода в Singye (КНДР) (109 км)
Погода в Sinpo (КНДР) (114 км)
Погода в Cheorwon (Корея) (115 км)
Погода в Changjin (КНДР) (133 км)
Погода в Sokcho (Корея) (143 км)
Погода в Pyongyang (КНДР) (143 км)

Пояснения к столбцам:

Ветер - указаны скорость ветра в м/с - средняя за 10 мин, порывы в срок и между сроками (в фигурных скобках) и направление, откуда дует ветер: С - северный, СВ - северо-восточный, В - восточный, ЮВ - юго-восточный, Ю - южный, ЮЗ - юго-западный, З - западный, СЗ - северо-западный.
Видимость - горизонтальная дальность видимости в метрах или километрах. При видимости от 1 до 10 км при отсутствии осадков обычно наблюдается дымка, при ухудшении видимости до 1 км и менее - туман. В сухую погоду видимость может ухудшаться дымом, пылью или мглою.
Явления - указаны атмосферные явления, наблюдавшиеся в срок или в последний час перед сроком; фигурными скобками обозначены явления, наблюдавшиеся между сроками (за 1-3 часа до срока); квадратными скобками обозначены град или гололедные отложения с указанием их диаметра в мм.
Облачность - указаны через наклонную черту общая и нижняя облачность в баллах и высота нижней границы облаков в метрах; квадратными скобками обозначены формы облаков: Ci - перистые, Cs - перисто-слоистые, Cc - перисто-кучевые, Ac - высококучевые, As - высокослоистые, Sc - слоисто-кучевые, Ns - слоисто-дождевые, Cu - кучевые, Cb - кучево-дождевые. Подробнее классификацию облаков см. в Атласе облаков (PDF).
T - Температура воздуха - температура, измеренная на высоте 2 м над землей.
Td - Температура точки росы - температура, при понижении до которой содержащийся в воздухе водяной пар достигнет насыщения.
f - Относительная влажность воздуха - влажноcть воздуха, измеренная на высоте 2 м над землей.
Te - Эффективная температура - температура, которую ощущает одетый по сезону человек в тени. Характеристика душности погоды. При расчете учитывается влияние влажности воздуха и скорости ветра на теплоощущения человека.
Tes - Эффективная температура на солнце - температура, которую ощущает человек, с поправкой на солнечный нагрев. Характеристика знойности погоды. Зависит от высоты солнца над горизонтом, облачности и скорости ветра. Ночью, в пасмурную погоду, а также при ветре 12 м/с и более поправка равна нулю.
P - Атмосферное давление - приведенное к уровню моря атмосферное давление.
Po - Атмосферное давление - измеренное на уровне метеостанции атмосферное давление.
Tmin - Минимальная температура - минимум температуры воздуха на высоте 2 м над землей.
Tmax - Максимальная температура - максимум температуры воздуха на высоте 2 м над землей.
R - Количество осадков - Количество выпавших осадков за период времени, мм. При наведении курсора мыши на число - период времени, за который выпало указанное количество осадков.
R24 - Количество осадков - Количество выпавших осадков за 24 часа, мм.
S - Снежный покров - Высота снежного покрова, см. При наведении курсора мыши на число - состояние снежного покрова и степень покрытия местности в баллах.